Tracking 17560 objects as of 11-February-2016
HD Live streaming from Space Station
objects crossing your sky now

GLOBALSTAR M003

Track GLOBALSTAR M003 now!
10-day predictions
GLOBALSTAR M003 is classified as:


NORAD ID: 25165
Int'l Code: 1998-008D
Perigee: 1,631.0 km
Apogee: 1,639.7 km
Inclination: 52.0 °
Period: 118.8 minutes
Semi major axis: 8006 km
RCS: 2.2435 m2 (large)
Launch date: February 14, 1998
Source: Globalstar (GLOB)
Launch site: AIR FORCE EASTERN TEST RANGE (AFETR)
Your satellite tracking list
Your tracking list is empty





NASA's NSSDC Master Catalog

Two Line Element Set (TLE):
1 25165U 98008D   16041.55827236 -.00000156  00000-0 -71042-3 0  9995
2 25165  51.9700 266.6408 0005472 25.9691 118.2236 12.11853752819281
Source of the keplerian elements: AFSPC

N2YO: 855